Regional Weather Roundup
Issued by NWS

Home | Current Version | Previous Version | Text Only | Print | Product List | Glossary On
Versions: 1 2 3 4 5 6 7 8 9 10 11 12 13 14 15 16 17 18 19 20 21 22 23 24 25 26 27 28 29 30 31 32 33 34 35 36 37 38 39 40 41 42 43 44 45 46 47 48 49 50
432
ASUS44 KJAN 230603
RWRMS

MISSISSIPPI HOURLY WEATHER ROUNDUP
NATIONAL WEATHER SERVICE JACKSON MS
100 AM CDT WED JUL 23 2014

NOTE: "FAIR: INDICATES FEW OR NO CLOUDS BELOW 12,000 FEET WITH NO
SIGNIFICANT WEATHER AND/OR OBSTRUCTIONS TO VISIBILITY.

MSZ001>002-007>008-010>013-018>021-025>028-034>036-230700-
NORTHWEST MISSISSIPPI

CITY           SKY/WX    TMP DP  RH WIND       PRES   REMARKS
CLARKSDALE     FAIR      73  73 100 CALM      30.07F
CLEVELAND      FAIR      74  74  98 N3        30.05S
GREENWOOD      CLOUDY    73  72  96 CALM      30.04F FOG
6HR MIN TEMP:  73; 6HR MAX TEMP:  87; 6HR PCP:  0.26;

GREENVILLE     PTCLDY    75  72  90 CALM      30.04F
6HR MIN TEMP:  75; 6HR MAX TEMP:  88;

GRENADA        FAIR      70  70 100 CALM      30.05F
OLIVE BRANCH   MOCLDY    75  75 100 CALM      30.08S
OXFORD         FAIR      73  72  94 CALM      30.09F
TUNICA         CLEAR     73  72  94 N5        30.07F
$$

MSZ003>006-009-014>017-022>024-029>033-037>039-230700-
NORTHEAST MISSISSIPPI

CITY           SKY/WX    TMP DP  RH WIND       PRES   REMARKS
BELMONT        FAIR      71  71  99 CALM      30.09S FOG
COLUMBUS AFB   MOCLDY    75  75 100 CALM      30.07F
6HR MIN TEMP:  74; 6HR MAX TEMP:  79;

CORINTH        FAIR      73  72  94 SE3       30.08S FOG
GOLDN TRIANGLE MOCLDY    75  72  88 CALM      30.07S
STARKVILLE     FAIR      72  70  94 CALM      30.06F
TUPELO         PTCLDY    75  72  90 CALM      30.06F
6HR MIN TEMP:  75; 6HR MAX TEMP:  83;

$$

MSZ040-058-230700-
CENTRAL MISSISSIPPI

CITY           SKY/WX    TMP DP  RH WIND       PRES   REMARKS
JACKSON INTL   LGT RAIN  75  73  93 CALM      30.05F
6HR MIN TEMP:  74; 6HR MAX TEMP:  82; 6HR PCP:  0.01;

JACKSON HAWKNS CLOUDY    74  70  87 CALM      30.06S
6HR MIN TEMP:  74; 6HR MAX TEMP:  80; 6HR PCP:  0.01;

MERIDIAN KEY   PTCLDY    70  68  93 CALM      30.06F
6HR MIN TEMP:  69; 6HR MAX TEMP:  72; 6HR PCP:  0.07;

MERIDIAN NAS   MOCLDY    72  70  93 CALM      30.06F
6HR MIN TEMP:  72; 6HR MAX TEMP:  78; 6HR PCP: TRACE;

RAYMOND        FAIR      72  66  83 CALM      30.05F
VICKSBURG      CLOUDY    74  72  93 S3        30.04F FOG
6HR MIN TEMP:  73; 6HR MAX TEMP:  81; 6HR PCP: TRACE;

$$

MSZ059>079-230700-
SOUTH MISSISSIPPI

CITY           SKY/WX    TMP DP  RH WIND       PRES   REMARKS
BROOKHAVEN     FAIR      70  70 100 CALM      30.08S
COLUMBIA       FOG       70  70 100 CALM      30.05S VSB<1/4
HATTIESBURG    FOG       69  68  96 CALM      30.07S VSB 1/2
6HR MIN TEMP:  69; 6HR MAX TEMP:  72;

MCCOMB         CLEAR     69  68  96 SE3       30.06F
6HR MIN TEMP:  69; 6HR MAX TEMP:  82; 6HR PCP:  0.04;

NATCHEZ        MOCLDY    75  72  88 E3        30.06S
6HR MIN TEMP:  75; 6HR MAX TEMP:  82;

PINE BELT      CLEAR     66  64  94 CALM      30.07S
6HR MIN TEMP:  66; 6HR MAX TEMP:  72; 6HR PCP:  0.01;

$$

MSZ080>082-230700-
COASTAL MISSISSIPPI

CITY           SKY/WX    TMP DP  RH WIND       PRES   REMARKS
BILOXI         CLEAR     73  71  94 N5        30.03F
6HR MIN TEMP:  73; 6HR MAX TEMP:  78;

PASCAGOULA     CLEAR     72  71  97 N3        30.03F
6HR MIN TEMP:  72; 6HR MAX TEMP:  78;

GULFPORT       CLEAR     74  69  85 N7        30.03S
6HR MIN TEMP:  74; 6HR MAX TEMP:  81;

$$



USA.gov is the U.S. government's official web portal to all federal, state and local government web resources and services.